Regional Weather Roundup
Issued by NWS

Home | Current Version | Previous Version | Graphics & Text | Print | Product List | Glossary On
Versions: 1 2 3 4 5 6 7 8 9 10 11 12 13 14 15 16 17 18 19 20 21 22 23 24 25 26 27 28 29 30 31 32 33 34 35 36 37 38 39 40 41 42 43 44 45 46 47 48 49 50
000
ASUS43 KBIS 312159
RWRND

NORTH DAKOTA REGIONAL WEATHER ROUNDUP
NATIONAL WEATHER SERVICE BISMARCK ND
500 PM CDT THU JUL 31 2014

NOTE: "FAIR" INDICATES FEW OR NO CLOUDS BELOW 12,000 FEET WITH NO
SIGNIFICANT WEATHER AND/OR OBSTRUCTIONS TO VISIBILITY.


NDZ001>003-009>011-017-312300-
NORTHWEST NORTH DAKOTA

CITY           SKY/WX    TMP DP  RH WIND       PRES   REMARKS
WILLISTON      SUNNY     89  54  30 E9        30.02F
MINOT          SUNNY     81  54  39 SE6       30.05F
$$

NDZ018>021-031>035-040>046-312300-
SOUTHWEST NORTH DAKOTA

CITY           SKY/WX    TMP DP  RH WIND       PRES   REMARKS
BISMARCK       SUNNY     87  49  26 CALM      30.06F
GARRISON         N/A     80  57  45 CALM      30.07F
HETTINGER ARPT SUNNY     87  50  27 VRB3      30.09F
$$

NDZ004>008-012>016-024-026-027-054-312300-
NORTHEAST NORTH DAKOTA

CITY           SKY/WX    TMP DP  RH WIND       PRES   REMARKS
GRAND FORKS    MOSUNNY   84  61  45 NW5       30.00S
DEVILS LAKE    MOSUNNY   81  55  41 NW10      30.04S
$$

NDZ022-023-025-028>030-036>039-047>053-312300-
SOUTHEAST NORTH DAKOTA

CITY           SKY/WX    TMP DP  RH WIND       PRES   REMARKS
FARGO          MOSUNNY   83  58  42 N6        30.01S
$$




USA.gov is the U.S. government's official web portal to all federal, state and local government web resources and services.